Regional Weather Roundup
Issued by NWS

Home | Current Version | Previous Version | Text Only | Print | Product List | Glossary Off
Versions: 1 2 3 4 5 6 7 8 9 10 11 12 13 14 15 16 17 18 19 20 21 22 23 24 25 26 27 28 29 30 31 32 33 34 35 36 37 38 39 40 41 42 43 44 45 46 47 48 49 50

000
ASUS43 KBIS 182110
RWRND

NORTH DAKOTA REGIONAL WEATHER ROUNDUP
NATIONAL WEATHER SERVICE BISMARCK ND
300 PM CST SAT FEB 18 2017

NOTE: "FAIR" INDICATES FEW OR NO CLOUDS BELOW 12,000 FEET WITH NO
SIGNIFICANT WEATHER AND/OR OBSTRUCTIONS TO VISIBILITY.


NDZ001>003-009>011-017-182200-
NORTHWEST NORTH DAKOTA

CITY           SKY/WX    TMP DP  RH WIND       PRES   REMARKS
WILLISTON      CLOUDY    41  32  70 E6        29.68S
MINOT          CLOUDY    40  33  76 N5        29.71S
$$

NDZ018>021-031>035-040>046-182200-
SOUTHWEST NORTH DAKOTA

CITY           SKY/WX    TMP DP  RH WIND       PRES   REMARKS
BISMARCK       PTSUNNY   38  33  82 E6        29.69F
DICKINSON      FAIR      47  32  56 E17       29.58F
GARRISON         N/A     37  32  82 SE7       29.69F
HETTINGER ARPT MOSUNNY   53  32  44 SE14      29.57F
$$

NDZ004>008-012>016-024-026-027-054-182200-
NORTHEAST NORTH DAKOTA

CITY           SKY/WX    TMP DP  RH WIND       PRES   REMARKS
GRAND FORKS    CLOUDY    42  32  67 W5        29.74R
GRND FRKS AFB  CLOUDY    42  34  74 NW7       29.75R
DEVILS LAKE    FAIR      36  32  85 W3        29.74S
$$

NDZ022-023-025-028>030-036>039-047>053-182200-
SOUTHEAST NORTH DAKOTA

CITY           SKY/WX    TMP DP  RH WIND       PRES   REMARKS
FARGO          MOSUNNY   47  39  74 SW6       29.75R
JAMESTOWN      FAIR      40  35  83 NE5       29.72F
$$





USA.gov is the U.S. government's official web portal to all federal, state and local government web resources and services.